Weather History for Kiana, AK

Change the Weather History Date:

Saturday, January 19, 2013

  Actual Average (PASK) Record (PASK)
Temperature  
Mean Temperature -7 °F -  
Max Temperature 3 °F 1 °F 32 °F (2001)
Min Temperature -17 °F -7 °F -43 °F (1999)
Degree Days  
Heating Degree Days 72    
Moisture  
Dew Point -14 °F    
Average Humidity 68    
Maximum Humidity 78    
Minimum Humidity 53    
Precipitation  
Precipitation 0.00 in - - ()
Sea Level Pressure  
Sea Level Pressure 30.57 in    
Wind  
Wind Speed 6 mph (ENE)    
Max Wind Speed 15 mph    
Max Gust Speed 22 mph    
Visibility 10 miles    
Events      
Averages and records for this station are not official NWS values.
T = Trace of Precipitation, MM = Missing Value Source: NWS Daily Summary

Daily Weather History Graph

Daily Weather History Graph

Search for Another Location

Airport:

Trip Planner

Search our weather history database for the weather conditions in past years. The results will help you decide how hot, cold, wet, or windy it might be!

Date:

Astronomy

Jan. 19, 2013 Rise Set
Actual Time 11:34 AM AKST 4:11 PM AKST
Civil Twilight 10:14 AM AKST 5:31 PM AKST
Nautical Twilight 9:02 AM AKST 6:44 PM AKST
Astronomical Twilight 7:58 AM AKST 7:48 PM AKST
Moon 11:24 AM AKST (1/19) 4:33 AM AKST (1/19)
Length of Visible Light 7h 17m
Length of Day
4h 36m
First Quarter, 58% of the Moon is Illuminated
Jan 19
First Quarter
Jan 26
Full
Feb 3
Last Quarter
Feb 9
New
Feb 17
First Quarter

Hourly Weather History & Observations

Time (AKST) Temp. Windchill Dew Point Humidity Pressure Visibility Wind Dir Wind Speed Gust Speed Precip Events Conditions
12:01 AM -15.0 °F -29.3 °F -20.0 °F 78% 30.75 in 10.0 mi ENE 5.8 mph - N/A   Clear
1:01 AM -14.1 °F -31.3 °F -20.0 °F 75% 30.74 in 10.0 mi ENE 8.1 mph - N/A   Clear
2:01 AM -17.0 °F - -22.0 °F 78% 30.74 in 10.0 mi Calm Calm - N/A   Clear
3:01 AM -17.0 °F -29.7 °F -22.0 °F 78% 30.73 in 10.0 mi NNE 4.6 mph - N/A   Clear
4:01 AM -16.1 °F - -22.0 °F 74% 30.71 in 10.0 mi Calm Calm - N/A   Clear
5:01 AM -11.0 °F -29.9 °F -17.0 °F 75% 30.69 in 10.0 mi NE 10.4 mph - N/A   Clear
6:01 AM -11.9 °F -28.7 °F -18.0 °F 74% 30.66 in 10.0 mi NE 8.1 mph - N/A   Clear
7:01 AM -9.9 °F -24.9 °F -16.1 °F 74% 30.65 in 10.0 mi NE 6.9 mph - N/A   Clear
8:01 AM -11.9 °F -27.3 °F -17.0 °F 78% 30.64 in 10.0 mi NNW 6.9 mph - N/A   Clear
9:01 AM -8.0 °F -22.5 °F -15.0 °F 71% 30.63 in 10.0 mi NE 6.9 mph - N/A   Clear
10:01 AM -8.0 °F - -14.1 °F 75% 30.62 in 10.0 mi Calm Calm - N/A   Clear
11:01 AM -2.9 °F -15.0 °F -11.0 °F 68% 30.60 in 10.0 mi Variable 5.8 mph - N/A   Clear
12:01 PM 3.9 °F -14.3 °F -9.9 °F 53% 30.58 in 10.0 mi East 15.0 mph 20.7 mph N/A   Clear
1:01 PM 3.9 °F -10.4 °F -8.0 °F 58% 30.56 in 10.0 mi ENE 9.2 mph - N/A   Clear
2:01 PM 3.9 °F -13.7 °F -8.0 °F 58% 30.54 in 10.0 mi ENE 13.8 mph 21.9 mph N/A   Clear
3:01 PM -0.9 °F -12.7 °F -11.0 °F 62% 30.53 in 10.0 mi ENE 5.8 mph - N/A   Clear
4:01 PM -0.9 °F -16.4 °F -11.0 °F 62% 30.49 in 10.0 mi East 9.2 mph 17.3 mph N/A   Clear
5:01 PM -2.0 °F -16.6 °F -11.0 °F 66% 30.48 in 10.0 mi East 8.1 mph - N/A   Clear
6:01 PM -0.9 °F -15.3 °F -9.9 °F 66% 30.45 in 10.0 mi East 8.1 mph - N/A   Clear
7:01 PM 1.0 °F -12.9 °F -9.9 °F 60% 30.41 in 10.0 mi ENE 8.1 mph - N/A   Mostly Cloudy
8:01 PM -0.9 °F -14.1 °F -9.9 °F 66% 30.40 in 10.0 mi East 6.9 mph - N/A   Overcast
9:01 PM 1.0 °F -12.9 °F -9.9 °F 60% 30.38 in 10.0 mi East 8.1 mph - N/A   Overcast
10:01 PM 1.0 °F -11.7 °F -9.0 °F 63% 30.36 in 10.0 mi ESE 6.9 mph - N/A   Overcast
11:01 PM 1.9 °F -11.8 °F -7.1 °F 66% 30.35 in 10.0 mi SE 8.1 mph - N/A   Overcast